Weather History for PHNG - September, 2012

Change the Weather History Date:

Monday, September 10, 2012

  Actual Average Record
Temperature  
Mean Temperature 78 °F -  
Max Temperature 82 °F 81 °F 86 °F (2005)
Min Temperature 75 °F 72 °F 46 °F (1998)
Cooling Degree Days 14    
Growing Degree Days 28 (Base 50)    
Moisture  
Dew Point 68 °F    
Average Humidity 72    
Maximum Humidity 83    
Minimum Humidity 60    
Precipitation  
Precipitation 0.00 in - - ()
Sea Level Pressure  
Sea Level Pressure 30.07 in    
Wind  
Wind Speed 10 mph (ENE)    
Max Wind Speed 14 mph    
Max Gust Speed 24 mph    
Visibility 9 miles    
Events      
Averages and records for this station are not official NWS values.
T = Trace of Precipitation, MM = Missing Value Source: NWS Daily Summary

Daily Weather History Graph

Daily Weather History Graph

Search for Another Location

Airport or City:

Trip Planner

Search our weather history database for the weather conditions in past years. The results will help you decide how hot, cold, wet, or windy it might be!

Date:

Astronomy

Sep. 10, 2012 Rise Set
Actual Time 6:16 AM HST 6:38 PM HST
Civil Twilight 5:54 AM HST 7:00 PM HST
Nautical Twilight 5:28 AM HST 7:26 PM HST
Astronomical Twilight 5:02 AM HST 7:52 PM HST
Moon 1:18 AM HST (9/10) 2:47 PM HST (9/10)
Length of Visible Light 13h 05m
Length of Day
12h 21m
Waning Crescent, 28% of the Moon is Illuminated
Sep 10
Waning Crescent
Sep 15
New
Sep 22
First Quarter
Sep 29
Full
Oct 7
Last Quarter

Hourly Weather History & Observations

Time (HST) Temp. Heat Index Dew Point Humidity Pressure Visibility Wind Dir Wind Speed Gust Speed Precip Events Conditions
12:57 AM 77.0 °F - 68.0 °F 74% 30.09 in 10.0 mi ENE 11.5 mph 16.1 mph N/A   Mostly Cloudy
1:57 AM 75.2 °F - 68.0 °F 78% 30.08 in 10.0 mi Variable 5.8 mph 16.1 mph N/A   Mostly Cloudy
2:57 AM 75.2 °F - 69.1 °F 81% 30.07 in 10.0 mi East 6.9 mph - N/A   Mostly Cloudy
3:35 AM 75.2 °F - 68.0 °F 78% 30.08 in 6.2 mi ENE 9.2 mph - N/A   Scattered Clouds
3:57 AM 75.2 °F - 68.0 °F 78% 30.07 in 10.0 mi ENE 4.6 mph - N/A   Mostly Cloudy
4:10 AM 75.2 °F - 69.8 °F 83% 30.08 in 6.2 mi East 8.1 mph - N/A   Scattered Clouds
4:46 AM 75.2 °F - 69.8 °F 83% 30.08 in 6.2 mi East 6.9 mph - N/A   Mostly Cloudy
4:57 AM 75.2 °F - 69.1 °F 81% 30.07 in 10.0 mi Variable 6.9 mph 16.1 mph N/A   Mostly Cloudy
5:35 AM 82.4 °F 85.4 °F 68.0 °F 62% 30.09 in 6.2 mi ENE 8.1 mph 16.1 mph N/A   Scattered Clouds
5:57 AM 77.0 °F - 68.0 °F 74% 30.08 in 10.0 mi ENE 6.9 mph - N/A   Scattered Clouds
6:57 AM 77.0 °F - 70.0 °F 79% 30.10 in 10.0 mi East 9.2 mph - N/A   Scattered Clouds
7:57 AM 78.8 °F - 68.0 °F 69% 30.11 in 10.0 mi ENE 9.2 mph - N/A   Mostly Cloudy
8:57 AM 78.8 °F - 68.0 °F 69% 30.11 in 10.0 mi ENE 11.5 mph 17.3 mph N/A   Mostly Cloudy
9:07 AM 80.6 °F 84.6 °F 71.6 °F 74% 30.12 in 6.2 mi East 10.4 mph 17.3 mph N/A   Scattered Clouds
9:57 AM 79.7 °F - 72.1 °F 78% 30.10 in 10.0 mi ENE 10.4 mph 19.6 mph N/A   Scattered Clouds
10:57 AM 80.1 °F 83.3 °F 70.2 °F 72% 30.09 in 10.0 mi ENE 13.8 mph - N/A   Clear
11:57 AM 81.7 °F 84.3 °F 67.6 °F 62% 30.08 in 10.0 mi ENE 13.8 mph 21.9 mph N/A   Scattered Clouds
12:57 PM 82.4 °F 85.4 °F 68.4 °F 62% 30.06 in 10.0 mi ENE 13.8 mph 20.7 mph N/A   Partly Cloudy
1:57 PM 80.8 °F 83.2 °F 66.9 °F 63% 30.05 in 10.0 mi ENE 9.2 mph - N/A   Mostly Cloudy
2:27 PM 82.4 °F 86.3 °F 69.8 °F 66% 30.06 in 6.2 mi ENE 12.7 mph 24.2 mph 0.00 in   Scattered Clouds
2:57 PM 81.7 °F 84.9 °F 69.1 °F 65% 30.03 in 10.0 mi ENE 13.8 mph 20.7 mph 0.00 in   Partly Cloudy
3:57 PM 82.0 °F 84.5 °F 66.9 °F 60% 30.02 in 10.0 mi ENE 13.8 mph 19.6 mph 0.00 in   Partly Cloudy
4:57 PM 82.0 °F 85.9 °F 70.0 °F 67% 30.02 in 10.0 mi ENE 9.2 mph 19.6 mph N/A   Scattered Clouds
5:57 PM 77.4 °F - 65.1 °F 66% 30.02 in 10.0 mi ENE 13.8 mph 21.9 mph N/A   Partly Cloudy
6:57 PM 77.0 °F - 67.1 °F 71% 30.04 in 10.0 mi ENE 10.4 mph 20.7 mph N/A   Mostly Cloudy
7:57 PM 76.8 °F - 68.4 °F 75% 30.05 in 7.0 mi East 12.7 mph 18.4 mph N/A   Scattered Clouds
8:04 PM 82.4 °F 85.4 °F 68.0 °F 62% 30.07 in 6.2 mi East 12.7 mph 20.7 mph N/A   Mostly Cloudy
8:57 PM 76.6 °F - 67.6 °F 74% 30.07 in 10.0 mi East 10.4 mph 20.7 mph N/A   Overcast
9:57 PM 75.9 °F - 68.5 °F 78% 30.07 in 10.0 mi ENE 8.1 mph 17.3 mph N/A   Overcast
10:57 PM 75.2 °F - 66.9 °F 75% 30.06 in 10.0 mi East 10.4 mph 24.2 mph N/A   Overcast
11:08 PM 77.0 °F - 66.2 °F 69% 30.08 in 6.2 mi East 10.4 mph 20.7 mph N/A   Overcast
11:57 PM 76.8 °F - 66.0 °F 69% 30.06 in 10.0 mi East 8.1 mph 16.1 mph N/A   Overcast